Location: *
(40.7873°S, 98.7174°E)
Time: 20:35:04
(UTC+00:00)

Cosmos 192 - Pass Details

Date: 29 September 2022
Orbit: 701 x 711 km, 74.0° (Epoch: 05 December)

Event Time Altitude Azimuth Distance (km) Brightness Sun altitude
Rises 11:48:51 0° 306° (NW) 3,091 8.4 -4.7°
Reaches altitude 10° 11:51:38 10° 290° (WNW) 2,181 8.0 -5.2°
Maximum altitude 11:55:27 22° 239° (WSW) 1,529 7.1 -5.9°
Drops below altitude 10° 11:59:19 10° 188° (S) 2,203 7.1 -6.6°
Sets 12:02:09 0° 173° (S) 3,131 7.7 -7.1°
